EUTELSAT HOTBIRD 13C

Last updated on Thu Nov 21 2024 00:02:41 GMT+0000 (Coordinated Universal Time)

1 33459U 08065A 24325.29280241 -.00000098 00000+0 00000+0 0 9993 2 33459 1.4677 85.7461 0006547 164.0833 262.8958 1.00271524 41590
UTC large
Height (km)
Speed (km/s)
/
Latitude / Longitude
Inclination (degrees)
Orbital Period (minutes)
Azimuth
Elevation
Range (km)
Doppler Factor

Next 0 passes for location: London (51.5072 / 0.1276)

Sorry there are no passes over London.